Погода в Мурманске

Погода в Мурманске : погода сейчас, прогноз погоды и архив. Всё, что Вы хотите узнать о погоде в Мурманске!

Поиск расширенной информации на нашем сайте:

Другие новости

Новости СМИ2

Главная страница сайта

Новости сайта

02.10.2013

Напоминаем, что на нашем новом сайте вы можете получить высокодетализированные прогнозы погоды по пунктам России, СНГ и мира (включающие важные для авиации метеовеличины, такие как направление и скорость ветра, видимость, явления погоды, количество и форма облачности, нижняя и верхняя граница облачности), а также ознакомиться с разнообразными материалами по авиационной метеорологии и подборкой полезных ссылок на эту тему.

Сайт Метеоцентр.Азия посвящён разработке технологий оптимизации авиаметеорологического обслуживания, включая проектирование и перспективное создание нескольких автоматизированных авиаметеорологических систем:
- система выпуска высокодетальных прогностических карт явлений погоды для нижнего воздушного пространства по России и ближнему зарубежью;
- система верификации прогнозов TAF (выпускаемых синоптиками официальных АМСГ РФ и ближнего зарубежья) и AUTOTAF (выпускаемых сайтом Метеоцентр.Азия) - выявление ошибок, онлайн-сопоставление с фактической погодой METAR, автоматическое внесение коррективов в прогнозы при резком отклонении фактической погоды от прогноза, подсчёт оправдываемости прогнозов по элементам и в целом;
- система обработки, анализа и отображения авиаметеорологической информации для применения провайдерами метеорологической информации.

Рекомендуем: Всё для освещения - http://lamparf.ru/.

Погода в Мурманске - сегодня

Время (UTC), дата Ветер
(°,м/с) 
Видим.   Явления Облачность Т
(°С)
Тd
(°С)
f(%) Тe
(°С)
Pmin
(гПа)
dP
(гПа)
Po
(мм)
O2
(г/м3)
Тmin Tmax R s Состояние
почвы
18 27.03.17 290 (З) 7-11{15}  20000 м  {ливн. осадки}  6/3 300 м кучево-дожд., средняя 
[Cb cap|Ac lent]
-4.2 -9.7 65 -9  993.4  0.2  740  304    -1.5  0.2     
21 27.03.17 300 (СЗ) 8-14{15}  20000 м  слаб. ливневой снег  8/8 300 м кучево-дожд. 
[Cb cap]
-5.8 -10.3 70 -11  993.8  0.4  741  306           
00 28.03.17 310 (СЗ) 8-15{15}  20000 м  слаб. ливневой снег  9/9 300 м кучево-дожд. 
[Cb cap]
-6.6 -10.2 76 -12  994.7  0.9  741  307           
03 28.03.17 300 (СЗ) 8-15{16}  4000 м  слаб. ливневой снег  10/10 300 м кучево-дожд. 
[Cb cap]
-7.1 -9.5 83 -13  995.2  0.4  742  308  -7.3    0.2     
06 28.03.17 300 (СЗ) 9-15{19}  4000 м  слаб. ливневой снег  9/5 600 м кучево-дожд., средняя, верхняя 
[Cb cap|Ac trans|Ci fib]
-6.9 -9.8 80 -13  995.7  0.5  742  308  -7.3    0.2  44  неравномерный
сухой снег
100% 
09 28.03.17 300 (СЗ) 9-16{17}  4000 м  слаб. ливневой снег  10/9 600 м кучево-дожд., средняя 
[Cb cap|Ac As]
-6 -8.6 82 -12  997.3  1.6  743  307           
12 28.03.17 300 (СЗ) 10-16{17}  1000 м  ливневой снег  10/10 600 м кучево-дожд. 
[Cb cap]
-4.6 -6.8 85 -11  998.5  1.2  744  306           
15 28.03.17 310 (СЗ) 6-12{18}  1000 м  ливневой снег  10/10 300 м кучево-дожд. 
[Cb cap]
-5.3 -6.6 91 -10  999.6  1.1  745  307         
18 28.03.17 300 (СЗ) 9-15{16}  2000 м  ливневой снег  9/9 300 м кучево-дожд. 
[Cb cap]
-6 -7.9 86 -12  999.9  0.2  745  308    -4.6     
21 28.03.17 300 (СЗ) 7-10{16}  20000 м  слаб. ливневой снег  9/9 600 м кучево-дожд. 
[Cb cap]
-7 -10 79 -12  1000.1  0.2  745  309           
00 29.03.17 300 (СЗ) 8-12{14}  20000 м  {ливн. осадки}  8/8 600 м кучево-дожд. 
[Cb cap]
-7.4 -9.1 88 -13  1000.4  0.3  745  310           
03 29.03.17 310 (СЗ) 5-9{14}  2000 м  ливневой снег  10/10 300 м кучево-дожд. 
[Cb cap]
-7 -8.3 90 -11  1000.9  0.5  746  309  -7.7       
06 29.03.17 290 (З) 4-7{14}  4000 м  слаб. ливневой снег  9/8 300 м кучево-дожд., средняя 
[Cb cap|Ac trans]
-7.3 -9.2 86 -11  1001.8  0.9  746  310  -7.7    54  неравномерный
сухой снег
100% 
09 29.03.17 300 (СЗ) 8-14{16}  20000 м  позёмок{ливн. осадки}  6/5 300 м кучево-дожд., средняя 
[Cb cap|Ac trans]
-6.1 -10.7 70 -12  1003.2  1.4  748  309           
12 29.03.17 300 (СЗ) 8-12{17}  10 км  слаб. ливневой снег  8/8 300 м кучево-дожд. 
[Cb cap]
-5.7 -9.9 72 -11  1004.5  1.3  749  309           
15 29.03.17 310 (СЗ) 5-9{16}  20000 м  слаб. ливневой снег  9/9 300 м кучево-дожд. 
[Cb cap]
-6.2 -9.2 79 -10  1005.9  1.4  750  310      0.4     
18 29.03.17 300 (СЗ) 7-11{15}  20000 м  {ливн. осадки}  3/0 средняя 
[Ac trans]
-7.9 -12.4 70 -13  1006.6  0.6  750  312    -5.1  0.4     
21 29.03.17 290 (З) 5-8{14}  10 км  слаб. ливневой снег  10/10 600 м кучево-дожд. 
[Cb cap]
-8.9 -11.7 80 -13  1007.6  751  314           
00 30.03.17 290 (З) 5-8{12}  20000 м  {ливн. осадки}  6/1 600 м средняя, верхняя 
[Sc|Ac trans|Ci fib]
-9.6 -12.6 79 -14  1008.6  752  315           
03 30.03.17 220 (ЮЗ) 3-6{10}  20000 м    9/0 средняя, верхняя 
[Ac lent|Ci fib]
-10.2 -13.3 78 -13  1009.6  0.9  752  316  -10.5    0.3     
06 30.03.17 160 (Ю) 1-4  20000 м    9/1 300 м кучево-дожд., средняя, верхняя 
[Cb cap|Ac lent|Ci fib]
-8 -13.9 62 -8  1010  0.4  753  314  -10.5    0.3  50  неравномерный
сухой снег
100% 
09 30.03.17 200 (Ю) 4-6  20000 м    9/0 средняя, верхняя 
[Ac lent|Cs]
-6.5 -14.3 54 -10  1009.2  -0.7  752  312           
12 30.03.17 220 (ЮЗ) 7-12{13}  20000 м  позёмок  9/3 600 м средняя, верхняя 
[Sc|Ac lent|Cs]
-4.6 -12.9 52 -9  1007  -2.1  750  309           
15 30.03.17 270 (З) 7-13{15}  20000 м  позёмок  9/8 300 м кучево-дожд., верхняя 
[Cb cap|Ci fib]
-3.6 -10.8 57 -8  1006.7  -0.3  750  307           
18 30.03.17 280 (З) 6-12{14}  20000 м    9/9 300 м кучево-дожд., верхняя 
[Cb cap|Ci fib]
-5.3 -12.3 58 -10  1007.9  1.2  751  310    -2.9       
Время (UTC), дата Ветер
(°,м/с) 
Видим.   Явления Облачность Т
(°С)
Тd
(°С)
f(%) Тe
(°С)
Pmin
(гПа)
dP
(гПа)
Po
(мм)
O2
(г/м3)
Тmin Tmax R s Состояние
почвы

Для получения пояснительной информации подведите курсор к названию столбца.

ПОГОДА в Мурманске - архив

Всё, что Вы хотите узнать о погоде в Мурманске - удобно и подробно!

Выберите нужную дату (начиная с 1 января 2015* года) и нажмите кнопку "Найти".
Будут отображены архивные сводки погоды по пункту Мурманск, начиная с указанной даты.


Отображать данные в формате CSV (для использования в таблицах Excel)


Внимание! Наш архив погоды предназначен исключительно для личного некоммерческого использования в познавательных целях. Если Вам необходимы официальные справки о состоянии погоды (для производственных, юридических, коммерческих и т.п. целей), обращайтесь в органы Росгидромета.

*Примечание: данная дата относится к архиву по метеостанциям СССР (Россия, СНГ, Балтия).
Архив по метеостанциям Зарубежной Европы и Азии (кроме Китая) хранится 10 дней, по другим регионам земного шара (Китай, Африка, Америка, Австралия, Океания) - 1 день.

Мурманск - район местоположения метеостанции


Название, широта, долгота, высота метеостанции:
Мурманск (город) 69°ш. 33.1°д. 51 м над ур. моря [Российская Федерация]

Дополнительная информация

В oтличие oт бoльшинства пoгoдных сайтoв мы публикуем пoдрoбную метеoинфoрмацию в детальнoм прoфессиoнальнoм фoрмате.

Характеристики температуры и влажнoсти вoздуха измеряются на высoте 2 м в тени вдали oт зданий и деревьев.
Скoрoсть ветра измеряется на высoте 10 м (на урoвне рoста челoвека скoрoсть ветра ниже в 1.5-2 раза). Если метеoстанция нахoдится в гoрoде или в лесу, тo скoрoсть ветра занижена на 2-4 м/с пo сравнению с oткрытым местoм. Скoрoсть ветра над акватoриями крупных рек и oзёр, а также на вершинах хoлмoв на 2-5 м/с выше, чем в oбычных услoвиях.
Атмoсфернoе давление в разных тoчках местнoсти мoжет значительнo oтличаться oт давления на метеoстанции, в зависимoсти oт услoвий рельефа (при пoдъёме на 10 м давление пoнижается примернo на 1 мм рт.ст.).